Theta_e
300 302 303 304 305 306 307 307 307 307 307 308 310 313 314 315 312 311 310 310 309 309 310 309 309 309 309 310 310 311 312 313 311 311 312 311 310 310 311 312 313 313 312 312
301 301 303 303 304 304 305 305 306 306 305 305 308 309 310 310 310 310 310 309 309 310 309 309 309 308 308 309 309 310 311 312 312 311 311 311 310 309 310 312 314 312 312 310
302 303 301 301 301 302 304 304 306 305 305 303 303 305 307 307 306 305 307 307 307 308 308 308 306 307 306 305 306 307 309 310 311 310 309 309 308 308 309 311 312 313 312 311
301 302 302 300 300 301 302 304 304 304 304 304 303 306 306 307 307 305 305 306 305 305 304 304 303 304 305 305 305 305 306 308 309 309 308 309 310 309 309 311 312 314 312 312
301 300 299 300 301 300 301 302 303 303 304 303 302 302 305 306 305 306 306 305 306 303 302 302 303 302 302 302 302 303 303 305 306 307 308 308 307 307 308 309 310 313 313 311
300 300 300 301 298 299 301 301 301 301 303 305 304 304 306 306 306 306 305 304 303 300 301 301 301 302 302 302 301 301 302 303 304 306 306 307 307 306 307 308 309 313 311 311
300 300 300 300 301 301 301 300 303 304 304 305 303 304 305 304 304 303 304 302 298 299 300 301 302 302 302 302 301 301 302 303 303 304 305 306 306 306 306 306 307 308 308 308
301 302 301 300 299 301 301 302 305 306 306 304 300 302 305 304 303 302 299 297 297 298 299 300 301 302 302 302 302 302 302 303 303 304 304 304 304 305 305 305 304 305 306 304
301 301 296 295 295 299 302 302 303 304 303 307 303 302 303 304 301 298 297 296 295 295 296 297 299 300 300 301 302 302 302 303 303 303 304 304 304 304 304 304 303 304 303 300
298 300 298 296 293 295 300 301 304 304 306 306 305 307 307 306 302 299 296 297 294 294 295 295 296 297 298 299 300 300 301 301 302 302 302 303 303 302 302 302 302 302 301 299
299 298 298 293 295 299 301 303 302 304 306 307 307 307 302 301 300 301 298 296 294 294 294 295 296 296 296 297 297 298 299 300 300 300 300 301 301 301 301 301 300 300 299 298
299 300 301 300 294 292 295 302 303 306 307 305 306 307 295 295 295 297 295 294 294 295 295 295 295 296 296 296 296 297 297 297 298 299 299 299 299 299 299 299 299 298 298 297
299 301 301 300 296 292 297 296 299 302 303 305 308 304 296 295 295 295 295 294 294 293 293 293 293 294 294 295 295 295 296 296 297 297 297 298 298 298 298 298 298 297 297 296
294 299 300 300 301 296 297 297 297 299 303 302 304 304 303 297 297 296 295 294 293 292 292 292 292 292 293 293 294 294 294 295 296 296 296 297 297 297 297 297 296 296 295 295
291 294 293 294 295 297 299 299 298 298 298 300 300 300 298 297 297 296 295 295 294 292 292 292 292 292 292 292 292 293 293 294 295 295 295 296 296 296 296 295 295 295 294 294
291 291 291 294 295 296 298 298 298 299 299 299 298 299 297 299 297 296 295 295 294 291 290 290 290 290 291 292 292 292 293 292 293 295 295 295 295 295 295 295 294 294 293 293
288 291 291 290 293 291 295 295 296 297 292 293 297 295 293 294 294 289 289 291 290 288 287 288 288 289 290 290 290 291 292 292 292 293 294 294 294 295 294 294 293 293 292 292
288 290 290 291 289 291 293 293 293 292 291 291 292 291 291 290 286 284 284 285 284 284 285 286 287 288 288 289 290 291 291 292 292 292 293 294 294 294 294 293 292 292 292 291
289 289 289 290 292 292 293 291 292 292 290 290 290 290 290 289 288 286 283 282 283 284 284 284 285 286 286 288 289 290 290 291 291 292 292 293 293 293 292 292 291 291 291 290
289 290 291 288 290 291 290 289 288 290 289 288 288 289 289 292 290 287 283 283 282 282 283 284 284 284 285 287 289 289 290 290 290 291 291 291 291 291 291 291 291 290 289 289
286 287 290 289 291 291 289 288 289 293 289 288 288 288 288 288 287 285 286 285 284 283 282 283 283 285 286 287 287 288 289 289 289 289 290 290 290 290 290 290 289 289 288 288
286 286 289 290 289 291 288 289 289 288 287 287 287 288 287 287 287 286 286 286 286 286 285 285 284 285 286 286 286 287 288 288 288 288 288 289 289 289 289 289 289 288 287 286
287 287 287 289 290 289 288 288 288 288 287 288 287 287 287 286 286 286 286 286 286 286 286 285 285 285 285 285 285 286 287 287 287 287 287 288 288 288 288 287 287 286 286 286
285 283 288 287 286 287 287 287 287 286 287 287 286 286 284 283 283 283 284 284 285 285 286 286 285 284 285 285 285 285 285 286 286 286 286 287 287 287 287 286 286 285 285 285
286 285 286 286 285 287 285 285 286 286 286 286 284 283 283 282 282 282 282 282 283 284 284 286 287 288 286 285 284 284 285 285 285 285 285 285 285 285 286 285 285 285 284 284
285 286 287 287 283 285 284 282 283 284 283 282 281 280 280 280 280 281 281 281 282 283 283 284 284 286 288 288 286 285 285 284 284 284 284 284 283 283 284 284 283 283 284 284
Wind_Speed
12 10 18 31 24 27 20 17 23 22 6 10 17 24 30 24 25 24 26 24 25 27 27 23 23 23 23 26 28 32 34 35 37 39 38 37 35 33 31 29 26 25 23 25
6 20 27 17 16 21 21 20 24 23 4 9 11 20 26 21 22 29 30 30 33 31 31 29 32 30 29 29 29 32 34 37 39 40 39 38 37 35 33 30 27 24 23 23
16 13 3 15 17 20 22 23 27 25 13 5 4 15 25 23 24 29 34 36 34 33 33 28 30 30 30 32 34 37 37 38 39 40 41 40 36 35 35 33 29 27 24 25
15 18 24 19 19 17 21 22 22 19 14 14 6 13 25 22 20 17 25 29 32 35 30 32 31 34 35 35 34 36 38 40 41 42 44 43 40 37 36 34 32 31 26 26
7 6 4 13 22 10 18 10 18 17 15 17 14 8 24 14 21 23 19 26 28 20 21 22 24 24 24 25 31 35 37 38 40 43 43 41 39 35 32 30 31 28 25 27
23 18 11 18 4 6 16 10 9 3 10 10 27 16 23 18 27 23 17 18 19 16 17 16 16 17 19 23 27 31 33 33 35 38 39 39 38 37 33 30 28 26 25 27
11 20 20 15 19 16 6 9 4 5 7 11 5 13 23 5 4 7 14 8 6 9 11 12 12 13 14 15 20 26 27 28 29 31 34 34 34 36 33 31 29 26 26 29
7 8 6 9 22 10 14 15 6 7 6 8 7 12 15 11 12 13 5 7 9 8 9 10 10 10 10 13 16 19 22 23 24 26 30 31 32 33 31 30 28 25 23 22
4 6 1 2 1 8 12 11 15 4 2 4 8 15 17 19 11 3 7 12 10 11 11 11 11 11 10 11 12 14 16 18 19 21 24 27 29 30 29 26 26 24 22 20
5 8 5 4 1 2 7 2 5 5 6 9 11 12 12 5 5 5 7 9 9 10 10 10 10 9 8 9 10 12 13 14 15 18 21 23 25 26 26 26 26 24 23 21
3 7 4 1 7 13 6 5 6 2 6 4 6 5 6 8 9 8 9 11 8 8 8 8 9 7 7 6 6 9 11 12 14 16 19 21 22 23 24 23 24 23 23 21
5 4 8 11 1 2 3 12 6 4 4 8 7 10 5 8 9 4 10 12 9 7 7 6 6 5 4 3 2 4 7 10 12 15 17 17 19 20 21 22 22 23 21 21
5 3 3 3 2 1 3 6 6 8 2 8 6 4 9 14 12 13 11 8 6 7 6 6 6 6 4 3 2 3 5 9 11 13 15 16 17 19 19 20 21 21 22 22
12 4 5 9 6 1 4 7 9 9 6 11 16 16 14 7 9 7 7 6 5 5 6 7 7 7 6 5 5 4 5 8 11 12 13 14 16 16 18 18 19 20 20 20
4 5 9 15 13 9 6 6 10 12 16 10 11 8 1 6 2 3 5 4 3 5 6 7 7 7 7 7 7 5 5 7 11 12 13 13 14 15 16 16 17 18 18 18
0 4 6 7 8 10 11 13 12 15 16 18 20 20 10 15 4 3 5 4 2 3 4 5 7 7 6 7 7 5 4 4 7 12 13 13 13 14 14 15 16 16 17 17
3 3 5 7 9 15 8 5 5 4 9 5 5 6 11 9 11 11 11 9 6 4 4 5 7 8 9 8 7 6 5 3 4 10 12 12 12 13 13 14 14 14 15 16
4 4 6 7 3 7 4 5 13 16 10 11 7 11 13 9 9 12 13 9 8 6 6 7 8 8 8 9 8 7 6 3 4 8 10 11 12 12 12 12 12 13 14 14
14 7 4 4 6 8 6 3 2 3 9 13 12 14 16 7 15 16 15 12 10 9 9 8 8 8 8 8 7 6 4 5 6 8 9 9 10 10 11 11 11 12 13 15
5 10 6 3 5 4 4 7 7 4 5 11 13 15 18 8 6 5 14 14 11 11 11 10 9 10 8 8 9 7 5 5 5 8 8 9 9 9 10 10 11 12 14 15
2 1 8 8 8 3 4 7 2 5 4 5 10 12 16 10 5 9 18 22 21 18 16 14 14 15 16 13 10 7 6 5 5 6 8 8 9 9 9 10 11 13 16 19
7 5 3 3 5 7 4 2 3 5 3 2 2 6 10 11 12 15 17 19 21 22 22 22 21 20 17 14 11 9 7 7 6 6 6 7 8 8 8 10 13 16 19 24
6 6 2 5 1 6 5 7 14 15 9 6 2 4 3 7 10 12 15 18 18 19 19 19 20 19 18 17 15 10 10 7 5 6 5 6 7 8 9 10 14 19 22 25
4 4 4 3 3 10 8 5 12 11 7 5 3 0 4 5 7 7 8 10 13 16 17 17 17 18 18 18 17 14 11 7 5 5 5 6 7 8 10 11 14 19 23 27
4 9 6 4 2 8 5 5 11 6 7 6 3 1 4 6 9 12 13 12 11 11 11 13 16 16 20 20 17 13 10 7 5 5 5 5 6 8 10 12 15 18 21 23
7 6 8 8 8 2 6 11 12 13 8 4 2 3 5 8 10 12 12 14 14 12 11 11 10 12 14 16 15 15 13 9 5 4 4 4 6 9 11 13 15 12 15 18
Wind_Direction
202 218 224 225 221 238 254 256 252 252 227 209 227 243 256 253 232 249 251 254 252 252 254 244 241 240 240 239 238 237 233 230 226 222 221 221 222 223 227 228 229 229 229 226
218 232 240 257 252 241 244 245 256 264 208 218 237 248 264 261 246 249 254 254 252 254 254 253 254 250 243 240 237 235 232 228 226 224 224 222 220 223 228 230 229 226 224 215
238 242 206 266 252 238 239 238 246 257 265 226 285 271 267 260 250 253 253 254 256 253 252 249 248 245 251 243 237 234 233 230 227 224 220 220 220 222 224 225 223 221 216 211
257 263 261 261 253 239 253 239 254 257 262 257 185 276 271 262 259 242 245 250 251 249 248 250 250 256 252 247 238 232 230 228 224 221 221 222 224 223 226 227 224 218 215 219
245 264 312 244 246 211 246 256 244 249 245 265 227 249 268 261 254 254 249 238 244 244 244 249 246 241 237 231 230 228 226 225 225 223 224 223 222 224 229 227 225 222 224 227
254 258 253 248 315 277 263 257 250 242 244 245 243 228 271 252 252 257 255 250 245 233 229 228 229 227 226 226 222 219 220 222 223 223 223 223 223 225 228 226 221 223 230 229
285 249 241 229 244 257 253 233 226 229 218 238 256 214 240 63 141 289 259 230 198 203 205 202 203 204 205 207 208 208 210 213 217 218 220 222 222 228 230 229 222 226 229 226
287 292 215 216 223 219 216 219 206 221 215 257 161 215 235 255 279 255 211 170 153 148 154 160 164 172 177 182 190 197 202 206 210 212 216 218 220 226 227 226 225 230 230 231
243 252 345 195 263 228 232 232 214 270 271 278 217 246 280 265 254 191 166 154 134 128 123 123 129 140 151 164 176 185 192 199 203 208 211 214 218 223 225 225 226 229 224 225
263 266 277 292 175 216 233 282 174 196 223 231 239 256 249 291 253 203 173 155 125 125 117 110 116 121 136 153 164 173 181 191 200 205 208 213 217 220 222 222 224 223 220 222
296 226 231 219 208 217 202 211 227 261 229 242 256 241 13 338 337 250 182 154 132 126 118 108 101 107 117 139 167 183 189 195 201 205 208 212 215 217 219 221 222 216 219 221
230 252 234 243 24 342 321 229 211 244 185 232 276 259 19 345 302 261 155 132 127 122 111 103 101 91 91 111 151 194 201 210 215 217 216 215 214 216 217 217 216 217 219 222
352 241 257 226 161 75 222 252 250 242 250 243 238 183 50 46 50 84 94 97 104 104 86 73 63 58 45 28 321 242 222 215 215 218 218 219 217 216 215 214 214 214 216 219
3 296 281 284 335 348 212 216 234 252 256 254 243 273 306 50 63 41 68 73 75 68 57 41 28 22 16 6 352 339 282 245 223 214 213 215 213 211 211 211 212 212 215 215
52 296 4 315 297 268 264 257 211 219 244 245 272 271 33 36 314 112 30 23 40 38 28 18 7 1 357 345 336 322 296 256 229 211 207 206 203 201 202 204 205 207 209 210
177 282 325 304 332 338 270 264 249 242 236 249 257 264 345 318 299 59 348 310 345 14 0 349 337 339 342 345 340 327 307 256 215 209 200 197 195 194 195 197 200 202 204 206
259 254 288 273 301 328 280 276 255 102 35 341 293 337 333 328 352 31 357 29 63 34 347 335 326 336 333 330 340 360 9 7 187 190 190 187 185 188 190 192 194 197 201 203
236 238 256 282 282 255 72 32 92 90 50 19 2 343 327 309 91 52 26 39 44 28 356 340 336 337 332 337 351 20 37 76 154 171 179 180 182 183 183 185 189 192 195 197
217 211 239 240 237 287 199 29 5 336 53 23 13 358 344 283 134 57 30 29 31 24 11 360 360 1 357 359 14 34 62 108 146 159 165 172 175 176 178 181 182 185 188 186
237 216 218 182 243 255 44 316 280 249 67 20 23 24 18 71 82 23 22 34 37 35 29 26 23 22 23 34 35 35 57 98 137 150 156 163 166 169 172 173 174 175 174 173
166 189 224 245 255 240 321 313 66 206 95 56 31 33 34 47 56 49 46 43 38 31 32 35 34 32 33 33 35 36 54 84 111 135 149 158 160 165 167 167 164 168 165 163
197 183 211 221 240 242 317 90 69 114 139 134 55 59 51 45 41 44 41 40 34 32 30 29 31 34 36 38 37 44 61 73 95 117 138 151 153 156 160 166 163 160 162 163
206 196 217 223 327 139 107 131 160 164 165 200 98 55 65 53 36 31 29 26 26 25 23 26 26 31 34 39 39 39 60 65 80 101 125 142 150 153 156 166 165 161 166 167
231 176 205 173 178 185 158 154 170 163 147 133 148 354 4 19 2 7 16 15 11 7 8 11 16 25 28 29 28 39 46 56 71 90 115 139 154 158 159 160 165 168 169 169
189 153 181 224 137 155 157 156 181 188 191 185 184 275 338 345 344 346 348 349 353 352 354 354 359 359 4 12 18 27 39 37 54 84 107 138 157 160 160 162 166 172 173 180
183 179 198 223 150 150 144 180 179 193 197 209 265 288 314 329 330 330 340 342 337 334 334 337 341 343 343 346 358 1 358 11 38 72 97 129 153 156 156 156 152 160 180 181